Temperature
16 16 17 17 17 17 17 17 17 17 17 17 17 17 17 17 17 17 17 17 17 17 16 16 16 16 16 16 16 16 16 16 16 16 16 16 16 16 16 15 15 15 16
16 16 16 16 16 17 17 17 17 17 17 17 17 17 17 17 17 17 17 17 16 16 16 16 16 16 16 16 16 16 16 16 16 16 16 16 16 16 16 16 15 15 16
16 16 16 16 16 16 17 17 17 17 17 17 17 17 17 17 17 17 17 16 16 16 16 16 16 16 16 16 16 16 16 16 16 16 15 15 15 16 16 16 16 16 15
16 16 16 16 16 16 16 16 16 16 16 16 17 17 17 17 16 16 16 16 16 16 16 16 16 16 16 16 16 16 16 16 16 15 14 14 15 15 15 15 16 15 15
15 15 16 16 16 16 16 16 16 16 16 16 16 17 17 16 16 16 16 16 16 16 16 16 16 16 16 16 16 16 16 16 16 15 14 14 14 15 15 15 15 15 15
15 15 15 15 16 16 16 16 16 16 16 16 16 16 16 16 16 16 16 16 16 16 16 16 16 16 16 16 16 16 16 16 15 14 14 14 14 15 15 15 15 15 15
15 15 15 15 15 15 15 16 16 16 16 16 16 16 16 16 16 16 16 16 16 16 16 16 16 16 16 16 16 16 16 16 14 14 14 14 15 15 15 15 15 15 15
15 15 15 15 15 15 15 15 15 15 16 16 16 16 16 16 16 16 16 16 16 16 16 16 16 16 16 16 16 16 16 15 15 14 14 14 15 15 15 15 15 15 15
14 15 15 15 15 15 15 15 15 15 15 16 16 16 16 16 16 16 16 16 16 16 16 16 16 16 16 16 16 16 15 15 14 14 14 14 15 15 15 15 15 15 15
14 14 15 15 15 15 15 15 15 15 15 15 15 16 16 15 16 15 15 16 15 15 15 15 15 15 15 15 15 15 15 15 14 14 14 14 15 15 15 15 15 15 15
14 14 14 14 15 15 15 15 15 15 15 15 15 15 15 15 15 15 15 15 15 15 15 15 15 15 15 15 15 15 15 15 14 14 14 15 15 15 15 15 15 14 14
13 14 14 14 14 14 14 14 15 15 15 15 15 15 15 15 15 15 15 15 15 15 15 15 15 15 15 15 15 15 14 14 14 14 15 15 15 15 15 15 14 14 14
12 13 13 14 14 14 14 14 14 14 14 14 14 14 15 15 15 15 15 15 15 15 14 14 14 14 14 14 14 14 14 14 14 14 15 15 15 15 15 15 14 14 14
11 12 13 13 13 14 14 14 14 14 14 14 14 14 14 15 15 15 15 15 15 14 14 14 14 14 14 14 14 14 14 14 14 14 14 15 15 15 15 14 14 14 14
11 11 12 12 13 13 13 13 13 13 14 14 14 14 14 14 14 14 14 14 14 14 14 14 14 14 14 14 14 14 14 14 14 14 14 15 15 15 15 14 14 14 14
10 11 11 12 12 12 13 13 13 13 13 13 14 14 14 14 14 14 14 14 14 14 14 14 14 14 14 14 14 14 14 14 14 14 14 14 15 15 15 14 14 14 14
10 10 11 11 11 12 12 12 12 13 13 13 13 14 14 14 14 14 14 14 14 14 14 14 14 14 13 14 14 14 14 14 14 14 14 14 14 14 14 14 14 14 14
9 10 10 10 11 11 12 12 12 12 12 13 13 13 13 13 13 14 14 14 14 14 14 14 13 13 13 13 13 13 13 13 14 14 14 14 14 14 14 14 14 14 14
9 9 9 10 10 11 11 11 11 12 12 12 12 13 13 13 13 13 13 13 13 13 13 13 13 13 13 13 13 13 13 13 13 13 13 13 13 14 14 14 14 14 13
8 9 9 9 10 10 10 11 11 11 11 11 12 12 12 13 13 13 13 13 13 13 13 13 13 13 13 13 13 13 13 13 13 13 13 13 13 13 13 13 13 13 13
8 8 9 9 9 9 10 10 10 10 11 11 11 12 12 12 12 12 12 12 12 13 13 13 13 12 12 12 12 12 12 12 12 12 12 12 12 13 13 13 13 13 13
7 8 8 8 9 9 9 9 10 10 10 11 11 11 11 11 12 12 12 12 12 12 12 12 12 12 12 12 11 11 11 11 12 12 12 12 12 12 12 12 12 12 12
7 7 7 8 8 8 9 9 9 9 10 10 10 11 11 11 11 11 11 11 12 12 12 12 12 12 12 11 11 11 11 12 11 11 11 11 11 11 11 12 12 12 12
6 6 7 7 7 8 8 9 9 9 9 9 10 10 10 10 10 11 11 11 11 11 11 11 11 11 11 11 11 11 11 11 11 11 11 11 11 11 11 11 11 11 11
6 6 7 7 7 7 8 8 8 8 8 9 9 9 10 10 10 10 10 11 11 11 11 11 11 11 11 11 10 10 10 10 10 10 10 10 10 10 11 11 11 11 11
5 6 6 6 7 7 7 7 8 8 8 8 9 9 9 9 10 10 10 10 10 10 10 10 10 10 10 10 10 10 10 10 10 10 10 10 10 10 10 10 10 10 10
Wind_Speed
5 3 4 5 9 12 14 14 15 16 17 17 17 17 17 16 16 15 15 14 14 14 14 15 15 15 15 15 15 15 15 15 15 15 15 15 14 14 13 12 11 14 14
6 3 3 5 8 11 13 14 14 16 17 18 18 17 17 17 16 16 15 15 14 14 14 15 15 15 15 15 15 15 14 14 15 15 15 14 14 13 12 11 11 12 13
6 3 3 4 7 9 12 13 13 15 17 18 18 18 17 17 17 16 16 15 14 14 14 15 15 15 15 15 15 14 14 14 14 13 10 11 12 12 12 12 12 12 12
6 3 1 4 6 8 9 11 13 14 16 18 19 18 18 17 17 17 16 15 15 14 15 14 15 15 15 14 14 14 14 13 12 9 8 10 11 11 11 11 11 11 11
6 4 2 3 4 6 8 9 12 13 14 17 18 19 18 18 17 17 16 16 15 15 15 15 15 15 15 14 14 14 13 12 9 6 8 9 9 11 10 10 10 10 10
6 5 2 1 3 5 7 8 9 12 14 15 18 19 18 18 18 17 17 16 15 15 16 16 15 15 14 14 13 13 12 11 9 8 8 8 9 10 9 9 9 9 9
6 5 3 1 3 5 7 8 9 10 13 14 16 18 18 18 17 17 17 17 16 16 16 16 16 15 14 14 13 12 12 9 7 7 7 7 8 9 9 8 8 8 8
6 6 4 2 3 5 7 8 10 9 10 13 14 16 17 17 17 17 18 18 17 17 16 16 16 15 14 14 13 12 11 9 7 7 7 7 8 8 8 8 8 7 7
6 5 5 4 4 6 7 8 10 11 10 11 13 15 15 17 17 18 18 18 18 17 16 16 15 15 14 13 13 12 11 8 7 6 6 6 8 8 8 8 7 7 6
6 5 5 5 5 6 8 9 10 11 11 11 11 13 15 15 16 18 18 18 18 17 17 16 15 15 14 13 13 12 11 9 7 7 6 6 8 8 8 8 7 6 6
8 6 6 6 6 6 7 8 10 11 12 12 12 12 14 15 16 16 18 17 18 17 17 16 16 15 14 12 12 12 11 8 7 6 6 7 8 8 8 8 7 7 6
10 9 7 7 6 7 7 7 8 10 11 12 12 13 13 13 13 14 16 17 17 17 17 16 15 15 13 11 12 12 10 9 7 6 6 8 9 9 9 8 8 8 7
11 11 9 8 7 7 6 6 6 7 8 11 12 13 12 11 11 12 12 14 15 16 15 15 15 13 12 10 10 11 9 8 7 6 7 10 10 10 10 9 9 9 8
12 12 10 9 8 8 7 6 6 6 6 7 10 13 11 7 7 9 9 11 13 13 12 13 12 13 12 11 11 11 10 8 7 6 7 10 10 10 11 10 10 10 10
13 12 11 10 9 8 7 7 7 7 7 8 9 12 12 8 8 8 8 10 11 12 12 11 11 11 11 11 11 10 9 10 9 8 7 11 11 11 12 12 11 11 11
12 12 11 10 10 9 8 8 7 7 7 8 8 11 13 10 9 8 9 9 10 11 12 11 11 10 9 9 9 10 10 10 10 9 8 10 12 12 12 13 13 13 12
12 11 11 10 9 9 10 10 8 7 7 7 8 11 13 12 10 9 9 9 9 12 12 10 11 10 9 9 10 10 9 10 10 10 10 9 10 12 13 13 13 13 13
11 11 10 9 9 9 9 9 8 7 7 7 8 9 12 13 12 9 8 9 10 10 9 9 9 9 9 9 9 8 8 8 10 10 10 10 10 10 12 13 13 13 13
10 10 10 9 9 9 8 8 8 7 7 7 7 7 9 11 12 9 8 8 10 8 8 9 9 9 9 9 9 8 8 9 9 9 10 11 10 10 10 11 12 12 12
9 8 8 8 8 7 7 6 6 6 6 6 6 7 9 9 11 9 8 9 9 8 9 9 10 9 9 9 8 8 9 9 9 9 10 10 10 10 10 10 10 11 12
7 6 6 6 7 5 6 6 6 7 7 7 7 8 9 9 11 10 9 9 9 9 10 11 9 10 9 7 7 6 7 9 9 8 8 8 9 10 10 10 10 9 9
7 5 5 6 6 6 6 6 6 6 6 7 6 7 8 9 10 9 10 9 10 9 10 10 10 8 7 7 6 5 5 7 8 9 8 8 9 8 9 10 11 10 9
7 5 4 5 6 6 6 6 5 5 6 6 7 6 8 9 10 10 10 9 9 10 10 11 11 11 9 9 8 6 5 6 4 7 9 9 9 8 8 9 10 11 11
7 6 5 5 5 5 5 6 8 7 8 8 6 6 7 8 9 9 9 9 9 9 9 10 11 10 10 9 8 8 7 4 5 4 7 9 10 10 10 8 9 10 11
7 6 4 4 4 4 4 5 7 8 7 6 6 7 6 6 7 8 9 8 9 9 9 10 10 10 9 10 8 8 8 7 8 6 8 8 8 9 9 9 8 9 11
7 5 4 3 3 3 3 4 5 7 7 7 7 6 5 5 6 7 7 8 8 8 9 9 9 10 10 10 10 9 8 8 8 8 9 9 9 8 9 8 9 8 9
Wind_Direction
340 318 174 186 172 170 167 164 167 166 165 165 164 163 161 160 158 154 152 150 148 144 141 137 134 132 128 124 120 116 113 109 105 102 98 96 98 98 96 95 96 92 89
328 306 172 178 172 172 171 170 168 169 167 167 167 166 166 165 162 159 157 156 152 148 144 141 138 135 131 127 123 119 116 111 108 106 105 102 99 100 97 86 79 93 92
351 347 170 170 169 169 174 171 173 171 171 170 169 170 170 169 166 163 161 160 157 154 150 145 141 137 133 130 126 123 120 117 115 119 133 117 109 106 103 98 97 99 96
0 9 147 153 163 169 171 175 174 175 175 175 173 174 174 173 170 167 166 163 160 156 151 146 141 139 135 133 131 128 125 123 125 148 132 117 116 113 112 109 105 103 99
5 9 37 136 169 169 171 176 182 180 179 180 178 178 178 176 175 172 169 164 160 155 150 146 142 141 139 138 135 133 131 131 141 156 119 121 118 119 116 112 109 106 103
359 360 12 145 185 184 179 179 184 186 184 184 184 182 181 180 178 174 168 163 160 155 151 148 146 146 145 143 141 139 138 143 164 134 132 129 124 124 121 117 115 112 109
343 343 342 297 221 204 196 188 187 191 190 189 189 188 184 181 180 175 168 165 163 160 157 154 153 152 151 150 148 146 147 163 161 141 138 134 127 133 132 129 125 122 119
325 323 316 294 248 220 209 201 196 190 193 195 194 192 189 185 182 177 171 169 168 166 163 161 160 159 158 158 156 153 155 177 162 150 148 142 133 145 142 139 138 136 132
313 307 299 280 251 226 219 212 204 199 197 199 198 195 192 189 185 180 175 173 173 172 169 166 165 166 165 163 161 158 164 186 173 162 160 154 149 158 154 153 152 151 147
302 299 292 276 259 239 223 216 212 207 203 203 199 193 188 187 187 182 179 177 177 175 172 170 169 170 170 168 165 165 169 188 184 172 176 158 164 173 170 169 169 168 167
296 293 287 276 265 251 236 221 214 209 206 203 201 193 190 194 193 187 188 180 181 180 176 175 174 174 173 171 170 171 180 198 188 187 186 158 181 186 184 184 184 187 188
292 290 282 275 266 255 244 226 218 215 209 209 205 200 201 200 197 192 183 180 183 181 180 180 177 177 184 183 178 182 199 204 196 196 184 171 195 197 196 197 200 202 203
284 285 279 274 264 252 241 234 222 218 212 212 210 205 203 201 196 191 182 183 187 185 187 183 183 189 195 193 190 198 208 204 205 201 188 185 203 206 206 208 211 214 213
276 277 275 268 262 252 242 236 226 220 215 211 211 209 203 198 197 192 189 188 189 191 192 191 195 196 200 199 200 203 206 209 211 209 196 194 212 216 217 218 220 221 221
269 269 267 262 257 252 245 238 231 222 220 214 211 210 205 198 200 198 196 191 191 192 192 195 198 197 200 203 206 209 210 214 214 213 204 202 215 222 223 223 223 225 228
265 266 266 259 253 249 244 238 233 224 220 215 210 210 207 202 200 199 199 196 194 194 195 198 200 199 203 206 210 212 214 216 220 219 219 208 214 221 225 226 228 230 234
266 263 261 260 250 245 243 239 234 222 218 212 210 209 207 204 201 199 199 197 197 196 196 199 201 202 205 208 213 215 218 220 221 223 223 222 220 220 225 229 232 235 237
271 263 255 254 250 243 239 235 229 222 216 214 211 208 207 204 202 200 201 199 198 196 197 199 200 201 204 209 214 215 220 221 226 227 226 225 225 225 224 226 232 235 238
277 264 252 249 247 241 237 232 226 220 220 217 211 208 206 203 203 202 202 200 197 197 200 200 200 202 205 209 214 218 222 224 227 228 231 229 228 229 230 220 223 231 236
278 262 250 248 243 235 231 225 221 217 219 218 214 206 205 203 202 203 203 205 199 200 202 203 203 204 209 209 212 220 223 224 227 228 231 230 227 227 230 230 228 229 231
293 267 251 247 242 234 224 215 214 216 215 217 214 210 206 206 204 205 207 205 205 205 206 206 205 204 207 204 208 219 229 229 230 228 229 231 228 227 230 232 234 235 233
303 285 266 253 247 238 226 215 215 217 217 218 213 213 210 211 209 207 208 207 209 209 208 208 204 203 202 197 201 202 221 226 225 228 227 229 232 228 230 232 234 236 239
316 304 284 269 253 244 229 213 210 215 217 219 212 215 213 214 212 210 210 209 211 212 211 208 208 207 203 199 202 204 210 224 228 223 225 228 230 231 234 234 235 237 239
320 314 300 277 261 247 233 217 209 215 220 222 217 217 214 216 215 212 213 213 215 214 214 213 212 213 208 203 204 216 226 219 216 226 223 227 232 236 237 238 238 238 240
325 319 309 287 267 254 242 229 213 218 224 222 214 215 218 218 219 215 213 214 218 220 218 216 213 213 215 214 208 209 219 223 222 225 239 238 240 238 239 239 239 237 237
340 331 316 283 267 255 244 239 217 217 221 217 213 212 219 221 219 218 216 216 221 225 222 219 217 215 217 219 215 213 215 215 216 223 235 240 246 247 242 240 239 237 236
Height
1513 1513 1513 1514 1516 1518 1519 1521 1523 1524 1526 1527 1528 1530 1531 1532 1533 1533 1534 1535 1536 1537 1537 1538 1539 1540 1540 1541 1541 1542 1542 1543 1543 1543 1544 1544 1544 1544 1545 1545 1545 1545 1544
1512 1512 1512 1514 1516 1517 1519 1521 1523 1524 1526 1528 1529 1530 1531 1532 1533 1534 1535 1536 1537 1538 1539 1539 1540 1541 1541 1542 1543 1543 1544 1544 1545 1545 1545 1546 1546 1546 1546 1546 1546 1546 1546
1511 1511 1512 1514 1515 1517 1519 1521 1523 1524 1526 1527 1529 1530 1532 1533 1534 1535 1536 1537 1538 1539 1539 1540 1541 1542 1542 1543 1544 1544 1545 1545 1546 1547 1547 1548 1547 1547 1548 1548 1548 1548 1547
1511 1511 1512 1513 1515 1517 1518 1520 1522 1524 1526 1527 1529 1530 1532 1533 1534 1535 1536 1537 1538 1539 1540 1541 1542 1543 1543 1544 1545 1545 1546 1547 1547 1548 1550 1550 1549 1549 1549 1549 1549 1549 1549
1512 1511 1512 1513 1514 1516 1518 1519 1521 1523 1525 1527 1528 1530 1531 1533 1534 1535 1536 1537 1539 1540 1541 1542 1542 1543 1544 1545 1546 1546 1547 1548 1548 1549 1550 1551 1550 1550 1550 1550 1550 1550 1550
1512 1512 1512 1513 1514 1515 1517 1518 1520 1522 1524 1526 1528 1529 1531 1532 1533 1535 1536 1537 1539 1540 1541 1542 1543 1544 1545 1546 1546 1547 1548 1549 1549 1551 1551 1551 1551 1551 1551 1551 1551 1551 1551
1511 1511 1511 1512 1513 1514 1516 1517 1519 1521 1523 1525 1526 1528 1530 1531 1533 1534 1536 1537 1539 1540 1541 1542 1543 1544 1545 1546 1547 1548 1549 1549 1551 1551 1552 1552 1552 1551 1552 1552 1552 1552 1552
1510 1510 1511 1511 1512 1513 1514 1516 1517 1519 1521 1523 1525 1527 1529 1530 1532 1534 1535 1537 1538 1539 1541 1542 1543 1544 1545 1546 1547 1548 1549 1550 1550 1551 1552 1552 1552 1552 1552 1552 1552 1552 1552
1508 1509 1509 1510 1510 1512 1513 1514 1516 1518 1519 1521 1523 1525 1527 1529 1531 1533 1534 1536 1537 1539 1540 1541 1543 1544 1545 1546 1547 1548 1549 1550 1551 1551 1552 1552 1552 1552 1552 1553 1553 1553 1553
1506 1506 1507 1508 1508 1509 1510 1512 1513 1515 1517 1519 1522 1524 1526 1527 1529 1531 1533 1535 1536 1538 1539 1541 1542 1544 1545 1546 1547 1548 1549 1549 1551 1551 1551 1552 1552 1552 1552 1552 1552 1553 1553
1503 1503 1504 1504 1505 1506 1508 1509 1510 1513 1515 1517 1519 1521 1523 1526 1527 1529 1531 1533 1535 1537 1538 1540 1541 1543 1544 1545 1546 1547 1548 1549 1550 1550 1550 1551 1551 1551 1552 1552 1552 1552 1552
1499 1500 1500 1501 1502 1503 1504 1505 1507 1509 1511 1514 1516 1518 1521 1523 1525 1527 1529 1531 1533 1535 1537 1538 1540 1542 1543 1544 1545 1546 1547 1548 1549 1549 1549 1550 1550 1550 1551 1551 1551 1552 1552
1495 1495 1496 1497 1498 1499 1500 1502 1503 1505 1507 1510 1512 1515 1517 1519 1522 1524 1526 1528 1531 1533 1535 1536 1538 1540 1541 1543 1543 1544 1546 1547 1547 1548 1548 1548 1549 1549 1550 1550 1550 1550 1550
1490 1490 1491 1492 1493 1495 1496 1498 1499 1501 1502 1505 1508 1511 1513 1515 1518 1520 1522 1525 1527 1529 1532 1534 1536 1537 1539 1540 1542 1543 1544 1545 1545 1546 1546 1547 1547 1548 1548 1548 1549 1549 1549
1484 1485 1485 1486 1488 1489 1491 1493 1495 1496 1498 1501 1503 1506 1509 1511 1513 1516 1519 1521 1524 1526 1528 1531 1533 1535 1536 1538 1539 1540 1541 1542 1543 1544 1544 1544 1545 1546 1546 1546 1546 1547 1547
1479 1479 1480 1480 1482 1484 1486 1488 1490 1491 1493 1496 1498 1501 1504 1507 1509 1512 1515 1517 1519 1522 1524 1527 1529 1531 1533 1535 1536 1537 1539 1540 1540 1541 1542 1542 1542 1543 1543 1544 1544 1544 1544
1473 1473 1474 1475 1476 1478 1480 1483 1484 1486 1489 1490 1493 1496 1499 1502 1505 1507 1510 1512 1515 1518 1520 1523 1525 1527 1529 1531 1532 1534 1535 1537 1537 1538 1539 1539 1540 1540 1540 1540 1541 1541 1541
1467 1467 1468 1469 1471 1473 1475 1477 1479 1481 1483 1485 1488 1491 1494 1497 1500 1502 1505 1507 1510 1513 1516 1518 1521 1523 1525 1526 1528 1530 1532 1533 1534 1535 1535 1536 1536 1536 1536 1537 1537 1537 1537
1461 1461 1461 1463 1465 1467 1469 1471 1474 1476 1478 1480 1483 1485 1488 1491 1494 1497 1500 1503 1505 1508 1511 1513 1516 1518 1520 1522 1524 1525 1527 1528 1529 1530 1531 1532 1532 1532 1533 1533 1533 1533 1533
1456 1455 1456 1457 1459 1461 1463 1466 1468 1470 1472 1475 1477 1480 1483 1486 1489 1492 1495 1498 1500 1503 1505 1508 1510 1513 1515 1517 1519 1521 1522 1524 1525 1526 1527 1528 1528 1528 1529 1529 1529 1529 1529
1451 1450 1451 1452 1453 1456 1458 1459 1462 1464 1466 1469 1472 1475 1477 1480 1484 1487 1490 1492 1495 1498 1500 1503 1505 1508 1510 1513 1515 1516 1517 1518 1520 1521 1522 1523 1523 1523 1524 1524 1525 1525 1524
1447 1446 1446 1447 1448 1450 1452 1454 1457 1459 1461 1464 1466 1469 1472 1475 1478 1481 1484 1487 1490 1492 1495 1497 1500 1502 1504 1507 1509 1511 1512 1514 1513 1515 1516 1517 1518 1518 1518 1519 1519 1519 1519
1444 1443 1442 1443 1444 1445 1448 1450 1452 1454 1457 1459 1461 1464 1467 1470 1473 1476 1479 1482 1484 1487 1489 1491 1494 1496 1498 1501 1503 1505 1507 1506 1508 1509 1510 1511 1512 1513 1513 1513 1513 1513 1514
1441 1440 1439 1440 1440 1441 1443 1445 1447 1450 1452 1454 1456 1459 1462 1465 1467 1471 1473 1476 1479 1481 1484 1486 1489 1491 1493 1494 1497 1499 1501 1501 1503 1503 1504 1505 1506 1506 1507 1507 1507 1507 1507
1438 1437 1436 1436 1437 1437 1439 1441 1443 1446 1449 1450 1453 1455 1457 1460 1462 1465 1467 1470 1473 1476 1478 1481 1483 1485 1487 1489 1490 1492 1494 1495 1497 1498 1497 1498 1499 1499 1500 1500 1500 1501 1501
1437 1435 1434 1434 1434 1435 1437 1438 1440 1442 1444 1446 1447 1449 1452 1455 1457 1459 1462 1465 1468 1470 1472 1475 1477 1479 1481 1483 1485 1486 1487 1488 1490 1491 1491 1491 1491 1491 1492 1493 1493 1493 1493